Hourly Weather Otrokovice

Today, 24 July, Saturday

Time Temperature Precipitation Wind Pressure Humidity
00:00 +18°C° 0 mm 1 mps 745 mmHg 72%
01:00 +16°C° 0 mm 1 mps 744 mmHg 74%
02:00 +16°C° 0 mm 1 mps 744 mmHg 76%
03:00 +16°C° 0 mm 1 mps 744 mmHg 78%
04:00 +15°C° 0 mm 1 mps 744 mmHg 81%
05:00 +18°C° 0 mm 1 mps 744 mmHg 74%
06:00 +20°C° 0 mm 1 mps 744 mmHg 67%
07:00 +22°C° 0 mm 1 mps 744 mmHg 60%
08:00 +24°C° 0 mm 1 mps 744 mmHg 52%
09:00 +26°C° 0 mm 1 mps 744 mmHg 45%
10:00 +28°C° 0 mm 2 mps 744 mmHg 38%
11:00 +29°C° 0 mm 2 mps 743 mmHg 35%
12:00 +30°C° 0 mm 2 mps 743 mmHg 33%
13:00 +31°C° 0 mm 2 mps 743 mmHg 30%
14:00 +31°C° 0 mm 3 mps 743 mmHg 29%
15:00 +33°C° 0 mm 3 mps 742 mmHg 29%
16:00 +33°C° 0 mm 3 mps 742 mmHg 29%
17:00 +30°C° 0 mm 3 mps 742 mmHg 35%
18:00 +28°C° 0 mm 3 mps 742 mmHg 41%
19:00 +27°C° 0 mm 2 mps 742 mmHg 47%
20:00 +26°C° 0 mm 2 mps 742 mmHg 48%
21:00 +25°C° 0 mm 2 mps 742 mmHg 48%
22:00 +24°C° 0 mm 2 mps 742 mmHg 48%
23:00 +22°C° 0 mm 3 mps 742 mmHg 49%

Tomorrow, 25 July, Sunday

Time Temperature Precipitation Wind Pressure Humidity
00:00 +22°C° 0 mm 3 mps 742 mmHg 51%
01:00 +21°C° 0 mm 3 mps 742 mmHg 52%
02:00 +21°C° 0 mm 3 mps 742 mmHg 54%
03:00 +21°C° 0 mm 3 mps 742 mmHg 57%
04:00 +20°C° 0 mm 3 mps 742 mmHg 59%
05:00 +21°C° 0 mm 2 mps 742 mmHg 59%
06:00 +23°C° 0 mm 2 mps 742 mmHg 60%
07:00 +23°C° 0 mm 2 mps 742 mmHg 60%
08:00 +23°C° 0.4 mm 2 mps 743 mmHg 64%
09:00 +23°C° 0.4 mm 1 mps 743 mmHg 68%
10:00 +22°C° 0.4 mm 1 mps 743 mmHg 72%
11:00 +25°C° 0 mm 2 mps 742 mmHg 62%
12:00 +27°C° 0 mm 3 mps 742 mmHg 52%
13:00 +29°C° 0 mm 4 mps 742 mmHg 42%
14:00 +30°C° 0 mm 4 mps 741 mmHg 40%
15:00 +32°C° 0 mm 4 mps 741 mmHg 38%
16:00 +33°C° 0 mm 3 mps 740 mmHg 36%
17:00 +30°C° 0.2 mm 3 mps 740 mmHg 46%
18:00 +28°C° 0.2 mm 2 mps 740 mmHg 56%
19:00 +25°C° 0.2 mm 2 mps 739 mmHg 66%
20:00 +24°C° 0.7 mm 2 mps 739 mmHg 73%
21:00 +21°C° 0.7 mm 2 mps 740 mmHg 80%
22:00 +20°C° 0.7 mm 2 mps 740 mmHg 87%
23:00 +20°C° 0.9 mm 1 mps 740 mmHg 89%

Day after tomorrow, 26 July, Monday

Time Temperature Precipitation Wind Pressure Humidity
00:00 +20°C° 0.9 mm 1 mps 740 mmHg 91%
01:00 +20°C° 0.9 mm 1 mps 740 mmHg 93%
02:00 +20°C° 0.1 mm 1 mps 740 mmHg 94%
03:00 +19°C° 0.1 mm 1 mps 741 mmHg 94%
04:00 +19°C° 0.1 mm 1 mps 741 mmHg 94%
05:00 +20°C° 0 mm 1 mps 741 mmHg 93%
06:00 +21°C° 0 mm 1 mps 742 mmHg 92%
07:00 +20°C° 0 mm 2 mps 742 mmHg 92%
08:00 +21°C° 0.1 mm 2 mps 742 mmHg 87%
09:00 +23°C° 0.1 mm 2 mps 743 mmHg 83%
10:00 +24°C° 0.1 mm 2 mps 743 mmHg 79%
11:00 +26°C° 0 mm 2 mps 743 mmHg 69%
12:00 +28°C° 0 mm 2 mps 743 mmHg 60%
13:00 +30°C° 0 mm 2 mps 743 mmHg 50%
14:00 +31°C° 0 mm 2 mps 743 mmHg 47%
15:00 +31°C° 0 mm 1 mps 742 mmHg 44%
16:00 +32°C° 0 mm 1 mps 742 mmHg 41%
17:00 +31°C° 0 mm 1 mps 742 mmHg 46%
18:00 +29°C° 0 mm 1 mps 742 mmHg 51%
19:00 +28°C° 0 mm 1 mps 742 mmHg 57%
20:00 +26°C° 1.2 mm 1 mps 742 mmHg 69%
21:00 +23°C° 1.2 mm 1 mps 743 mmHg 82%
22:00 +21°C° 1.2 mm 1 mps 743 mmHg 94%
23:00 +21°C° 0.3 mm 1 mps 743 mmHg 94%

27 July, Tuesday

Time Temperature Precipitation Wind Pressure Humidity
00:00 +20°C° 0.3 mm 1 mps 743 mmHg 94%
01:00 +18°C° 0.3 mm 0 mps 743 mmHg 95%
02:00 +18°C° 0 mm 0 mps 743 mmHg 95%
03:00 +18°C° 0 mm 0 mps 743 mmHg 95%
04:00 +17°C° 0 mm 0 mps 744 mmHg 95%
05:00 +20°C° 0 mm 1 mps 744 mmHg 92%
06:00 +21°C° 0 mm 1 mps 744 mmHg 88%
07:00 +22°C° 0 mm 1 mps 744 mmHg 85%
08:00 +24°C° 0 mm 1 mps 744 mmHg 76%
09:00 +26°C° 0 mm 1 mps 744 mmHg 67%
10:00 +28°C° 0 mm 1 mps 744 mmHg 59%
11:00 +29°C° 0 mm 1 mps 744 mmHg 55%
12:00 +30°C° 0 mm 1 mps 744 mmHg 50%
13:00 +32°C° 0 mm 1 mps 744 mmHg 46%
14:00 +31°C° 0.1 mm 1 mps 744 mmHg 49%
15:00 +30°C° 0.1 mm 1 mps 744 mmHg 52%
16:00 +29°C° 0.1 mm 2 mps 743 mmHg 55%
17:00 +28°C° 0.3 mm 2 mps 743 mmHg 63%
18:00 +26°C° 0.3 mm 2 mps 743 mmHg 71%
19:00 +24°C° 0.3 mm 2 mps 743 mmHg 79%
20:00 +24°C° 0.1 mm 1 mps 743 mmHg 82%
21:00 +23°C° 0.1 mm 1 mps 743 mmHg 85%
22:00 +22°C° 0.1 mm 1 mps 743 mmHg 87%
23:00 +21°C° 0 mm 1 mps 743 mmHg 88%

28 July, Wednesday

Time Temperature Precipitation Wind Pressure Humidity
00:00 +21°C° 0 mm 1 mps 743 mmHg 89%
01:00 +21°C° 0 mm 1 mps 743 mmHg 90%
02:00 +20°C° 0 mm 1 mps 743 mmHg 91%
03:00 +20°C° 0 mm 1 mps 743 mmHg 92%
04:00 +20°C° 0 mm 1 mps 743 mmHg 92%
05:00 +21°C° 0 mm 1 mps 743 mmHg 86%
06:00 +23°C° 0 mm 1 mps 743 mmHg 81%
07:00 +24°C° 0 mm 1 mps 743 mmHg 75%
08:00 +27°C° 0 mm 1 mps 743 mmHg 66%
09:00 +29°C° 0 mm 1 mps 743 mmHg 58%
10:00 +31°C° 0 mm 1 mps 743 mmHg 49%
11:00 +32°C° 0 mm 1 mps 742 mmHg 46%
12:00 +32°C° 0 mm 1 mps 742 mmHg 44%
13:00 +34°C° 0 mm 2 mps 742 mmHg 41%
14:00 +31°C° 0.3 mm 2 mps 742 mmHg 50%
15:00 +29°C° 0.3 mm 2 mps 742 mmHg 59%
16:00 +27°C° 0.3 mm 2 mps 742 mmHg 68%
17:00 +25°C° 0.4 mm 3 mps 742 mmHg 72%
18:00 +23°C° 0.4 mm 4 mps 743 mmHg 75%
19:00 +22°C° 0.4 mm 4 mps 743 mmHg 79%
20:00 +21°C° 0.1 mm 3 mps 744 mmHg 82%
21:00 +20°C° 0.1 mm 2 mps 744 mmHg 85%
22:00 +20°C° 0.1 mm 1 mps 745 mmHg 88%
23:00 +20°C° 0 mm 1 mps 745 mmHg 89%

29 July, Thursday

Time Temperature Precipitation Wind Pressure Humidity
00:00 +19°C° 0 mm 1 mps 745 mmHg 90%
01:00 +19°C° 0 mm 1 mps 745 mmHg 91%
02:00 +18°C° 0 mm 1 mps 745 mmHg 92%
03:00 +18°C° 0 mm 1 mps 745 mmHg 93%
04:00 +18°C° 0 mm 1 mps 745 mmHg 94%
05:00 +19°C° 0 mm 1 mps 745 mmHg 89%
06:00 +20°C° 0 mm 1 mps 745 mmHg 85%
07:00 +22°C° 0 mm 1 mps 745 mmHg 81%
08:00 +24°C° 0 mm 1 mps 745 mmHg 70%
09:00 +26°C° 0 mm 1 mps 745 mmHg 60%
10:00 +28°C° 0 mm 1 mps 745 mmHg 50%
11:00 +30°C° 0 mm 1 mps 745 mmHg 46%
12:00 +31°C° 0 mm 1 mps 744 mmHg 41%
13:00 +32°C° 0 mm 2 mps 744 mmHg 37%
14:00 +32°C° 0 mm 1 mps 744 mmHg 36%
15:00 +32°C° 0 mm 1 mps 743 mmHg 36%
16:00 +33°C° 0 mm 1 mps 743 mmHg 35%
17:00 +31°C° 0 mm 1 mps 743 mmHg 41%
18:00 +29°C° 0 mm 1 mps 742 mmHg 47%
19:00 +27°C° 0 mm 2 mps 742 mmHg 53%
20:00 +26°C° 0 mm 2 mps 742 mmHg 56%
21:00 +25°C° 0 mm 2 mps 742 mmHg 59%
22:00 +24°C° 0 mm 2 mps 741 mmHg 62%
23:00 +23°C° 0 mm 1 mps 741 mmHg 63%
Show more